Time,TemperatureF,DewpointF,PressureIn,WindDirection,WindDirectionDegrees,WindSpeedMPH,WindSpeedGustMPH,Humidity,HourlyPrecipIn,Conditions,Clouds,dailyrainin,SoftwareType,DateUTC
2013-04-15 00:02:00,37.0,21.0,-100.00,South,170,7.0,11.0,52,-99.99,,,-99.99,,2013-04-15 06:02:00,
2013-04-15 00:12:00,37.0,21.0,-100.00,South,170,7.0,11.0,52,-99.99,,,-99.99,,2013-04-15 06:12:00,
2013-04-15 00:22:00,36.0,22.0,-100.00,South,180,1.0,3.0,55,-99.99,,,-99.99,,2013-04-15 06:22:00,
2013-04-15 00:33:00,36.0,22.0,-100.00,South,185,1.0,3.0,56,-99.99,,,-99.99,,2013-04-15 06:33:00,
2013-04-15 00:42:00,36.0,23.0,-100.00,South,190,2.0,3.0,57,-99.99,,,-99.99,,2013-04-15 06:42:00,
2013-04-15 00:52:00,36.0,23.0,-100.00,South,190,2.0,4.0,57,-99.99,,,-99.99,,2013-04-15 06:52:00,
2013-04-15 01:02:00,36.0,24.0,-100.00,SSW,200,7.0,10.0,59,-99.99,,,-99.99,,2013-04-15 07:02:00,
2013-04-15 01:41:00,35.0,24.0,-100.00,SSW,210,9.0,11.0,62,-99.99,,,-99.99,,2013-04-15 07:41:00,
2013-04-15 01:43:00,34.0,24.0,-100.00,SW,225,9.0,12.0,66,-99.99,,,-99.99,,2013-04-15 07:43:00,
2013-04-15 01:52:00,33.0,24.0,-100.00,SW,235,9.0,12.0,68,-99.99,,,-99.99,,2013-04-15 07:52:00,
2013-04-15 02:02:00,33.0,24.0,-100.00,WSW,240,10.0,14.0,69,-99.99,,,-99.99,,2013-04-15 08:02:00,
2013-04-15 02:13:00,33.0,24.0,-100.00,WSW,240,11.0,13.0,69,-99.99,,,-99.99,,2013-04-15 08:13:00,
2013-04-15 02:22:00,32.0,24.0,-100.00,WSW,245,12.0,16.0,71,-99.99,,,-99.99,,2013-04-15 08:22:00,
2013-04-15 02:33:00,33.0,24.0,-100.00,WSW,240,12.0,15.0,70,-99.99,,,-99.99,,2013-04-15 08:33:00,
2013-04-15 02:42:00,33.0,23.0,-100.00,SW,235,15.0,17.0,68,-99.99,,,-99.99,,2013-04-15 08:42:00,
2013-04-15 02:52:00,32.0,23.0,-100.00,SW,235,12.0,16.0,69,-99.99,,,-99.99,,2013-04-15 08:52:00,
2013-04-15 03:03:00,32.0,23.0,-100.00,SW,230,15.0,21.0,67,-99.99,,,-99.99,,2013-04-15 09:03:00,
2013-04-15 03:12:00,32.0,22.0,-100.00,SW,225,17.0,22.0,66,-99.99,,,-99.99,,2013-04-15 09:12:00,
2013-04-15 03:23:00,32.0,22.0,-100.00,SW,220,16.0,21.0,65,-99.99,,,-99.99,,2013-04-15 09:23:00,
2013-04-15 03:32:00,32.0,22.0,-100.00,SW,225,17.0,24.0,65,-99.99,,,-99.99,,2013-04-15 09:32:00,
2013-04-15 03:43:00,32.0,22.0,-100.00,SW,225,18.0,22.0,65,-99.99,,,-99.99,,2013-04-15 09:43:00,
2013-04-15 03:53:00,32.0,21.0,-100.00,SW,220,17.0,24.0,64,-99.99,,,-99.99,,2013-04-15 09:53:00,
2013-04-15 04:02:00,32.0,21.0,-100.00,SW,220,13.0,20.0,64,-99.99,,,-99.99,,2013-04-15 10:02:00,
2013-04-15 04:13:00,31.0,21.0,-100.00,SW,220,11.0,17.0,65,-99.99,,,-99.99,,2013-04-15 10:13:00,
2013-04-15 04:23:00,31.0,22.0,-100.00,SW,225,11.0,14.0,66,-99.99,,,-99.99,,2013-04-15 10:23:00,
2013-04-15 04:33:00,31.0,22.0,-100.00,SW,235,11.0,14.0,68,-99.99,,,-99.99,,2013-04-15 10:33:00,
2013-04-15 04:42:00,31.0,22.0,-100.00,SW,235,11.0,13.0,69,-99.99,,,-99.99,,2013-04-15 10:42:00,
2013-04-15 04:52:00,31.0,22.0,-100.00,WSW,240,7.0,12.0,70,-99.99,,,-99.99,,2013-04-15 10:52:00,
2013-04-15 05:03:00,31.0,23.0,-100.00,WSW,245,6.0,8.0,71,-99.99,,,-99.99,,2013-04-15 11:03:00,
2013-04-15 05:12:00,31.0,23.0,-100.00,WSW,250,7.0,9.0,72,-99.99,,,-99.99,,2013-04-15 11:12:00,
2013-04-15 05:22:00,31.0,23.0,-100.00,WSW,255,7.0,9.0,73,-99.99,,,-99.99,,2013-04-15 11:22:00,
2013-04-15 05:32:00,31.0,24.0,-100.00,WSW,255,6.0,9.0,73,-99.99,,,-99.99,,2013-04-15 11:32:00,
2013-04-15 05:43:00,31.0,24.0,-100.00,WSW,255,7.0,10.0,74,-99.99,,,-99.99,,2013-04-15 11:43:00,
2013-04-15 05:53:00,31.0,24.0,-100.00,WSW,255,9.0,11.0,73,-99.99,,,-99.99,,2013-04-15 11:53:00,
2013-04-15 06:04:00,31.0,24.0,-100.00,WSW,255,8.0,11.0,73,-99.99,,,-99.99,,2013-04-15 12:04:00,
2013-04-15 06:14:00,31.0,24.0,-100.00,WSW,255,11.0,14.0,73,-99.99,,,-99.99,,2013-04-15 12:14:00,
2013-04-15 06:23:00,31.0,23.0,-100.00,WSW,250,11.0,14.0,72,-99.99,,,-99.99,,2013-04-15 12:23:00,
2013-04-15 06:33:00,31.0,23.0,-100.00,WSW,250,12.0,16.0,72,-99.99,,,-99.99,,2013-04-15 12:33:00,
2013-04-15 06:43:00,31.0,23.0,-100.00,WSW,250,10.0,14.0,72,-99.99,,,-99.99,,2013-04-15 12:43:00,
2013-04-15 06:53:00,31.0,23.0,-100.00,WSW,255,9.0,12.0,73,-99.99,,,-99.99,,2013-04-15 12:53:00,
2013-04-15 07:04:00,31.0,23.0,-100.00,WSW,255,10.0,14.0,73,-99.99,,,-99.99,,2013-04-15 13:04:00,
2013-04-15 07:12:00,31.0,23.0,-100.00,WSW,255,12.0,14.0,73,-99.99,,,-99.99,,2013-04-15 13:12:00,
2013-04-15 07:23:00,31.0,23.0,-100.00,WSW,250,11.0,15.0,72,-99.99,,,-99.99,,2013-04-15 13:23:00,
2013-04-15 07:33:00,31.0,23.0,-100.00,WSW,250,11.0,15.0,72,-99.99,,,-99.99,,2013-04-15 13:33:00,
2013-04-15 07:43:00,31.0,23.0,-100.00,WSW,255,12.0,17.0,73,-99.99,,,-99.99,,2013-04-15 13:43:00,
2013-04-15 07:53:00,30.0,23.0,-100.00,WSW,250,17.0,20.0,72,-99.99,,,-99.99,,2013-04-15 13:53:00,
2013-04-15 08:05:00,30.0,22.0,-100.00,WSW,255,16.0,20.0,73,-99.99,,,-99.99,,2013-04-15 14:05:00,
2013-04-15 08:13:00,30.0,23.0,-100.00,West,260,17.0,21.0,75,-99.99,,,-99.99,,2013-04-15 14:13:00,
2013-04-15 08:22:00,29.0,22.0,-100.00,West,260,17.0,22.0,75,-99.99,,,-99.99,,2013-04-15 14:22:00,
2013-04-15 08:33:00,29.0,22.0,-100.00,West,260,17.0,22.0,75,-99.99,,,-99.99,,2013-04-15 14:33:00,
2013-04-15 08:44:00,29.0,22.0,-100.00,West,265,17.0,21.0,76,-99.99,,,-99.99,,2013-04-15 14:44:00,
2013-04-15 08:54:00,29.0,22.0,-100.00,West,265,17.0,22.0,76,-99.99,,,-99.99,,2013-04-15 14:54:00,
2013-04-15 09:03:00,29.0,22.0,-100.00,West,265,17.0,21.0,76,-99.99,,,-99.99,,2013-04-15 15:03:00,
2013-04-15 09:13:00,29.0,23.0,-100.00,West,270,15.0,21.0,78,-99.99,,,-99.99,,2013-04-15 15:13:00,
2013-04-15 09:23:00,29.0,23.0,-100.00,West,275,14.0,19.0,78,-99.99,,,-99.99,,2013-04-15 15:23:00,
2013-04-15 09:35:00,29.0,23.0,-100.00,West,275,14.0,19.0,78,-99.99,,,-99.99,,2013-04-15 15:35:00,
2013-04-15 09:44:00,29.0,23.0,-100.00,West,275,14.0,19.0,78,-99.99,,,-99.99,,2013-04-15 15:44:00,
2013-04-15 09:53:00,29.0,23.0,-100.00,West,280,15.0,17.0,80,-99.99,,,-99.99,,2013-04-15 15:53:00,
2013-04-15 10:04:00,29.0,24.0,-100.00,West,280,11.0,17.0,80,-99.99,,,-99.99,,2013-04-15 16:04:00,
2013-04-15 10:13:00,29.0,24.0,-100.00,West,280,13.0,17.0,79,-99.99,,,-99.99,,2013-04-15 16:13:00,
2013-04-15 10:24:00,29.0,24.0,-100.00,West,280,12.0,17.0,79,-99.99,,,-99.99,,2013-04-15 16:24:00,
2013-04-15 10:33:00,30.0,24.0,-100.00,West,265,14.0,17.0,76,-99.99,,,-99.99,,2013-04-15 16:33:00,
2013-04-15 10:44:00,31.0,24.0,-100.00,West,265,12.0,19.0,76,-99.99,,,-99.99,,2013-04-15 16:44:00,
2013-04-15 10:53:00,31.0,25.0,-100.00,West,270,12.0,17.0,77,-99.99,,,-99.99,,2013-04-15 16:53:00,
2013-04-15 11:03:00,31.0,25.0,-100.00,West,270,12.0,17.0,77,-99.99,,,-99.99,,2013-04-15 17:03:00,
2013-04-15 11:15:00,31.0,25.0,-100.00,West,270,12.0,17.0,77,-99.99,,,-99.99,,2013-04-15 17:15:00,
2013-04-15 11:22:00,31.0,24.0,-100.00,West,260,13.0,17.0,75,-99.99,,,-99.99,,2013-04-15 17:22:00,
2013-04-15 11:33:00,31.0,24.0,-100.00,West,260,13.0,17.0,75,-99.99,,,-99.99,,2013-04-15 17:33:00,
2013-04-15 11:43:00,31.0,24.0,-100.00,West,260,13.0,17.0,75,-99.99,,,-99.99,,2013-04-15 17:43:00,
2013-04-15 11:52:00,32.0,25.0,-100.00,WSW,255,14.0,17.0,74,-99.99,,,-99.99,,2013-04-15 17:52:00,
2013-04-15 12:03:00,32.0,25.0,-100.00,WSW,255,14.0,17.0,74,-99.99,,,-99.99,,2013-04-15 18:03:00,
2013-04-15 12:12:00,32.0,25.0,-100.00,WSW,255,14.0,17.0,74,-99.99,,,-99.99,,2013-04-15 18:12:00,
2013-04-15 12:23:00,32.0,25.0,-100.00,WSW,255,14.0,17.0,74,-99.99,,,-99.99,,2013-04-15 18:23:00,
2013-04-15 12:42:00,36.0,26.0,-100.00,SW,235,12.0,18.0,67,-99.99,,,-99.99,,2013-04-15 18:42:00,
2013-04-15 12:52:00,35.0,25.0,-100.00,SW,230,12.0,17.0,67,-99.99,,,-99.99,,2013-04-15 18:52:00,
2013-04-15 13:02:00,35.0,25.0,-100.00,SW,230,12.0,17.0,67,-99.99,,,-99.99,,2013-04-15 19:02:00,
2013-04-15 13:12:00,35.0,25.0,-100.00,SW,230,12.0,17.0,67,-99.99,,,-99.99,,2013-04-15 19:12:00,
2013-04-15 13:22:00,35.0,25.0,-100.00,SW,230,8.0,12.0,67,-99.99,,,-99.99,,2013-04-15 19:22:00,
2013-04-15 13:38:00,35.0,25.0,-100.00,SW,230,8.0,12.0,67,-99.99,,,-99.99,,2013-04-15 19:38:00,
2013-04-15 13:53:00,35.0,25.0,-100.00,SW,230,8.0,12.0,67,-99.99,,,-99.99,,2013-04-15 19:53:00,
2013-04-15 13:58:00,33.0,24.0,-100.00,WSW,245,12.0,16.0,71,-99.99,,,-99.99,,2013-04-15 19:58:00,
2013-04-15 14:02:00,33.0,24.0,-100.00,WSW,245,11.0,15.0,70,-99.99,,,-99.99,,2013-04-15 20:02:00,
2013-04-15 14:11:00,33.0,24.0,-100.00,WSW,245,12.0,14.0,70,-99.99,,,-99.99,,2013-04-15 20:11:00,
2013-04-15 14:22:00,33.0,24.0,-100.00,WSW,245,11.0,15.0,71,-99.99,,,-99.99,,2013-04-15 20:22:00,
2013-04-15 14:32:00,33.0,25.0,-100.00,WSW,245,12.0,15.0,71,-99.99,,,-99.99,,2013-04-15 20:32:00,
2013-04-15 14:42:00,34.0,25.0,-100.00,WSW,245,11.0,15.0,70,-99.99,,,-99.99,,2013-04-15 20:42:00,
2013-04-15 14:52:00,35.0,26.0,-100.00,SW,235,11.0,16.0,68,-99.99,,,-99.99,,2013-04-15 20:52:00,
2013-04-15 15:02:00,35.0,25.0,-100.00,SW,230,12.0,15.0,67,-99.99,,,-99.99,,2013-04-15 21:02:00,
2013-04-15 15:12:00,36.0,26.0,-100.00,SW,230,11.0,14.0,67,-99.99,,,-99.99,,2013-04-15 21:12:00,
2013-04-15 15:22:00,35.0,26.0,-100.00,SW,230,12.0,16.0,67,-99.99,,,-99.99,,2013-04-15 21:22:00,
2013-04-15 15:33:00,35.0,26.0,-100.00,SW,235,9.0,12.0,68,-99.99,,,-99.99,,2013-04-15 21:33:00,
2013-04-15 15:43:00,35.0,26.0,-100.00,SW,235,9.0,12.0,68,-99.99,,,-99.99,,2013-04-15 21:43:00,
2013-04-15 15:53:00,35.0,26.0,-100.00,SW,235,9.0,12.0,68,-99.99,,,-99.99,,2013-04-15 21:53:00,
2013-04-15 16:02:00,35.0,26.0,-100.00,SW,235,9.0,12.0,68,-99.99,,,-99.99,,2013-04-15 22:02:00,
2013-04-15 16:13:00,35.0,26.0,-100.00,WSW,245,11.0,14.0,71,-99.99,,,-99.99,,2013-04-15 22:13:00,
2013-04-15 16:23:00,35.0,27.0,-100.00,WSW,250,10.0,15.0,72,-99.99,,,-99.99,,2013-04-15 22:23:00,
2013-04-15 16:33:00,35.0,27.0,-100.00,WSW,250,11.0,14.0,72,-99.99,,,-99.99,,2013-04-15 22:33:00,
2013-04-15 16:42:00,35.0,27.0,-100.00,WSW,250,11.0,14.0,72,-99.99,,,-99.99,,2013-04-15 22:42:00,
2013-04-15 16:52:00,35.0,27.0,-100.00,WSW,250,11.0,14.0,73,-99.99,,,-99.99,,2013-04-15 22:52:00,
2013-04-15 17:02:00,36.0,28.0,-100.00,WSW,255,10.0,13.0,73,-99.99,,,-99.99,,2013-04-15 23:02:00,
2013-04-15 17:12:00,36.0,28.0,-100.00,WSW,255,10.0,13.0,73,-99.99,,,-99.99,,2013-04-15 23:12:00,
2013-04-15 17:22:00,35.0,28.0,-100.00,West,260,9.0,15.0,75,-99.99,,,-99.99,,2013-04-15 23:22:00,
2013-04-15 17:32:00,35.0,28.0,-100.00,West,260,9.0,15.0,75,-99.99,,,-99.99,,2013-04-15 23:32:00,
2013-04-15 17:42:00,35.0,28.0,-100.00,West,260,9.0,15.0,75,-99.99,,,-99.99,,2013-04-15 23:42:00,
2013-04-15 17:52:00,35.0,28.0,-100.00,West,260,12.0,15.0,75,-99.99,,,-99.99,,2013-04-15 23:52:00,
2013-04-15 18:02:00,35.0,28.0,-100.00,West,260,12.0,15.0,75,-99.99,,,-99.99,,2013-04-16 00:02:00,
2013-04-15 18:12:00,35.0,28.0,-100.00,West,260,12.0,15.0,75,-99.99,,,-99.99,,2013-04-16 00:12:00,
2013-04-15 18:22:00,36.0,28.0,-100.00,WSW,255,11.0,15.0,73,-99.99,,,-99.99,,2013-04-16 00:22:00,
2013-04-15 18:32:00,36.0,28.0,-100.00,WSW,255,11.0,15.0,73,-99.99,,,-99.99,,2013-04-16 00:32:00,
2013-04-15 18:42:00,36.0,28.0,-100.00,WSW,255,11.0,15.0,73,-99.99,,,-99.99,,2013-04-16 00:42:00,
2013-04-15 18:52:00,36.0,28.0,-100.00,WSW,255,11.0,15.0,73,-99.99,,,-99.99,,2013-04-16 00:52:00,
2013-04-15 19:22:00,33.0,31.0,-100.00,NNW,335,11.0,15.0,94,-99.99,,,-99.99,,2013-04-16 01:22:00,
2013-04-15 19:32:00,33.0,31.0,-100.00,NNW,335,11.0,15.0,94,-99.99,,,-99.99,,2013-04-16 01:32:00,
2013-04-15 19:42:00,33.0,31.0,-100.00,NNW,335,11.0,15.0,94,-99.99,,,-99.99,,2013-04-16 01:42:00,
2013-04-15 19:52:00,33.0,31.0,-100.00,NNW,335,11.0,15.0,94,-99.99,,,-99.99,,2013-04-16 01:52:00,
2013-04-15 21:12:00,31.0,31.0,-100.00,North,350,9.0,14.0,97,-99.99,,,-99.99,,2013-04-16 03:12:00,
2013-04-15 21:22:00,31.0,31.0,-100.00,North,350,9.0,14.0,97,-99.99,,,-99.99,,2013-04-16 03:22:00,
2013-04-15 21:33:00,31.0,31.0,-100.00,North,350,9.0,14.0,97,-99.99,,,-99.99,,2013-04-16 03:33:00,
2013-04-15 21:43:00,31.0,31.0,-100.00,North,350,9.0,14.0,97,-99.99,,,-99.99,,2013-04-16 03:43:00,
2013-04-15 23:02:00,29.0,29.0,-100.00,North,355,13.0,19.0,98,-99.99,,,-99.99,,2013-04-16 05:02:00,
2013-04-15 23:12:00,29.0,29.0,-100.00,North,355,13.0,17.0,98,-99.99,,,-99.99,,2013-04-16 05:12:00,
2013-04-15 23:22:00,29.0,29.0,-100.00,North,355,13.0,19.0,98,-99.99,,,-99.99,,2013-04-16 05:22:00,
2013-04-15 23:32:00,29.0,28.0,-100.00,North,350,14.0,18.0,97,-99.99,,,-99.99,,2013-04-16 05:32:00,
2013-04-15 23:42:00,29.0,28.0,-100.00,North,350,14.0,18.0,97,-99.99,,,-99.99,,2013-04-16 05:42:00,
2013-04-15 23:52:00,29.0,28.0,-100.00,North,350,13.0,17.0,97,-99.99,,,-99.99,,2013-04-16 05:52:00,